Location: Bretagne
(43.8474°N, 0.4650°W)
Time: 09:55:48
(UTC+00:00)

USA 238 - Pass Details

Date: 15 January 2026
Orbit: 883 x 1328 km, 63.4° (Epoch: 10 January)

Event Time Altitude Azimuth Distance (km) Brightness Sun altitude
Rises 18:14:00 0° 322° (NW) 3,985 7.0 -14.8°
Reaches altitude 10° 18:16:36 10° 322° (NW) 3,082 6.4 -15.3°
Maximum altitude 18:24:07 85° 236° (SW) 1,260 4.1 -16.6°
Drops below altitude 10° 18:32:16 10° 149° (SSE) 3,323 6.1 -18.0°
Sets 18:35:09 0° 148° (SSE) 4,311 6.7 -18.5°
